Paso Robles, CA

3:13 PM PDT on October 13, 2019 (GMT -0700)
Paso Robles Municipal

Weather History for KPRB - September, 2019

Change the Weather History Date:

Thursday, September 19, 2019

  Actual Average Record
Temperature  
Mean Temperature 68 °F 69 °F  
Max Temperature 82 °F 88 °F 107 °F (2000)
Min Temperature 54 °F 50 °F 40 °F (1978)
Degree Days  
Heating Degree Days 0 1  
Month to date heating degree days 0 7  
Since 1 July heating degree days 1 15  
Cooling Degree Days 3 5  
Month to date cooling degree days 162 116  
Year to date cooling degree days 992 849  
Growing Degree Days 18 (Base 50)    
Moisture  
Dew Point 49 °F    
Average Humidity 62    
Maximum Humidity 93    
Minimum Humidity 23    
Precipitation  
Precipitation 0.00 in 0.01 in 0.16 in (1966)
Month to date precipitation 0.00 0.09  
Year to date precipitation 11.28 8.99  
Sea Level Pressure  
Sea Level Pressure 29.90 in    
Wind  
Wind Speed 9 mph ()    
Max Wind Speed 15 mph    
Max Gust Speed 20 mph    
Visibility 10.0 miles    
Events      
T = Trace of Precipitation, MM = Missing Value Source: Averaged Metar Reports

Daily Weather History Graph

Daily Weather History Graph

Search for Another Location

Airport or City:

Astronomy

Sep. 19, 2019 Rise Set
Actual Time 6:48 AM PDT 7:03 PM PDT
Civil Twilight 6:22 AM PDT 7:29 PM PDT
Nautical Twilight 5:52 AM PDT 7:59 PM PDT
Astronomical Twilight 5:22 AM PDT 8:29 PM PDT
Moon 10:26 PM PDT (9/19) 11:47 AM PDT (9/19)
Length of Visible Light 13h 06m
Length of Day
12h 15m
Waning Gibbous, 73% of the Moon is Illuminated
Sep 19
Waning Gibbous
Sep 21
Last Quarter
Sep 28
New
Oct 5
First Quarter
Oct 13
Full

Hourly Weather History & Observations

Time (PDT) Temp. Dew Point Humidity Pressure Visibility Wind Dir Wind Speed Gust Speed Precip Events Conditions
12:53 AM 61.0 °F 55.0 °F 81% 29.90 in 10.0 mi NW 15.0 mph - N/A   Partly Cloudy
1:53 AM 60.1 °F 55.0 °F 83% 29.90 in 10.0 mi NW 12.7 mph - N/A   Clear
2:53 AM 59.0 °F 55.0 °F 87% 29.90 in 10.0 mi NW 10.4 mph - N/A   Clear
3:53 AM 57.0 °F 53.1 °F 87% 29.90 in 10.0 mi NNW 6.9 mph - N/A   Clear
4:53 AM 55.9 °F 53.1 °F 90% 29.90 in 10.0 mi NW 8.1 mph - N/A   Clear
5:53 AM 55.0 °F 53.1 °F 93% 29.91 in 10.0 mi NW 11.5 mph - N/A   Clear
6:53 AM 54.0 °F 52.0 °F 93% 29.93 in 10.0 mi NW 4.6 mph - N/A   Clear
7:53 AM 55.9 °F 53.1 °F 90% 29.94 in 10.0 mi NW 5.8 mph - N/A   Clear
8:53 AM 59.0 °F 53.1 °F 81% 29.95 in 10.0 mi NW 9.2 mph - N/A   Clear
9:53 AM 63.0 °F 53.1 °F 70% 29.95 in 10.0 mi WNW 8.1 mph - N/A   Clear
10:53 AM 68.0 °F 50.0 °F 52% 29.94 in 10.0 mi NW 11.5 mph - N/A   Clear
11:53 AM 72.0 °F 46.9 °F 41% 29.93 in 10.0 mi NNW 9.2 mph - N/A   Clear
12:53 PM 75.9 °F 46.0 °F 35% 29.90 in 10.0 mi Variable 3.5 mph - N/A   Clear
1:53 PM 78.1 °F 43.0 °F 29% 29.88 in 10.0 mi West 5.8 mph - N/A   Clear
2:53 PM 79.0 °F 41.0 °F 26% 29.86 in 10.0 mi Variable 4.6 mph - N/A   Clear
4:53 PM 81.0 °F 41.0 °F 24% 29.83 in 10.0 mi North - - N/A   Clear
5:53 PM 80.1 °F 43.0 °F 27% 29.83 in 10.0 mi NW 8.1 mph - N/A   Clear
6:53 PM 75.0 °F 44.1 °F 33% 29.83 in 10.0 mi NW 12.7 mph - N/A   Clear
7:53 PM 69.1 °F 48.0 °F 47% 29.86 in 10.0 mi WNW 11.5 mph - N/A   Clear
8:53 PM 64.9 °F 48.9 °F 56% 29.88 in 10.0 mi NW 10.4 mph - N/A   Clear
9:53 PM 62.1 °F 48.9 °F 62% 29.88 in 10.0 mi WNW 11.5 mph - N/A   Clear
10:53 PM 60.1 °F 48.0 °F 64% 29.90 in 10.0 mi NW 13.8 mph - N/A   Clear
11:53 PM 59.0 °F 48.0 °F 67% 29.91 in 10.0 mi NW 13.8 mph - N/A   Clear